Location: ???????
(55.4362°N, 38.1183°E)
Time: 04:32:28
(UTC+00:00)

Cosmos 1816 Rocket - Visible Passes

Search period start: 17 October 2021 00:00
Search period end: 27 October 2021 00:00
Orbit: 950 x 1000 km, 82.9° (Epoch: 16 October)

Date Brightness Start Highest point End Pass type
(mag) Time Alt. Az. Time Alt. Az. Time Alt. Az.
17 Oct 6.2 15:24:39 10° NNE 15:26:55 12° NE 15:29:11 10° ENE visible
17 Oct 4.9 17:08:20 10° N 17:13:51 42° ENE 17:13:51 42° ENE visible
17 Oct 5.5 18:53:51 10° NNW 18:58:31 41° WNW 18:58:31 41° WNW visible
18 Oct 5.9 15:49:02 10° N 15:53:03 18° NE 15:54:29 16° ENE visible
18 Oct 4.5 17:33:36 10° N 17:39:09 63° NE 17:39:09 63° NE visible
18 Oct 6.1 19:19:33 10° NNW 19:23:50 28° WNW 19:23:50 28° WNW visible
19 Oct 5.4 16:13:56 10° N 16:19:00 26° ENE 16:19:49 25° ENE visible
19 Oct 4.6 17:58:58 10° NNW 18:04:28 71° NW 18:04:28 71° NW visible
19 Oct 6.6 19:45:34 10° NW 19:49:09 18° WNW 19:49:09 18° WNW visible
20 Oct 6.3 14:55:53 10° NNE 14:57:21 11° NE 14:58:50 10° NE visible
20 Oct 4.9 16:39:02 10° N 16:44:46 38° ENE 16:45:10 38° ENE visible
20 Oct 5.1 18:24:27 10° NNW 18:29:50 50° WNW 18:29:50 50° WNW visible
20 Oct 7.0 20:12:37 10° NW 20:14:22 11° WNW 20:14:30 11° WNW visible
21 Oct 6.0 15:19:52 10° NNE 15:23:32 16° NE 15:25:52 13° ENE visible
21 Oct 4.4 17:04:16 10° N 17:10:22 59° ENE 17:10:32 59° E visible
21 Oct 5.8 18:50:06 10° NNW 18:55:12 33° W 18:55:12 33° W visible
22 Oct 5.6 15:44:41 10° N 15:49:31 23° ENE 15:51:16 21° E visible
22 Oct 4.3 17:29:37 10° NNW 17:35:49 90° NE 17:35:57 87° SSE visible
22 Oct 6.4 19:16:00 10° NNW 19:20:25 21° WNW 19:20:37 21° W visible
23 Oct 5.1 16:09:45 10° N 16:15:21 34° ENE 16:16:43 31° E visible
23 Oct 4.8 17:55:04 10° NNW 18:01:06 59° W 18:01:24 58° WSW visible
23 Oct 6.9 19:42:33 10° NW 19:45:12 13° WNW 19:46:04 13° W visible
24 Oct 6.1 14:50:44 10° NNE 14:54:00 14° NE 14:57:16 10° E visible
24 Oct 4.6 16:34:57 10° N 16:41:00 52° ENE 16:42:13 46° ESE visible
24 Oct 5.6 18:20:39 10° NNW 18:26:14 37° W 18:26:53 36° W visible
25 Oct 5.7 15:15:27 10° N 15:20:03 21° NE 15:23:05 15° E visible
25 Oct 4.3 17:00:16 10° N 17:06:28 81° ENE 17:07:46 58° SSE visible
25 Oct 6.3 18:46:28 10° NNW 18:51:13 24° W 18:52:27 22° W visible
26 Oct 5.2 15:40:28 10° N 15:45:55 31° ENE 15:48:41 22° ESE visible
26 Oct 4.7 17:25:41 10° NNW 17:31:48 66° W 17:33:23 49° SSW visible
26 Oct 6.9 19:12:45 10° NW 19:16:03 15° WNW 19:18:05 13° W visible
